Location: Foligno
(42.9600°N, 12.7050°E)
Time: 06:02:02
(UTC+01:00)

ISS - Pass Details

Date: 21 January 2021
Orbit: 418 x 421 km, 51.6° (Epoch: 23 January)

Event Time Altitude Azimuth Distance (km) Brightness Sun altitude
Rises 17:51:16 0° 224° (SW) 2,356 1.3 -8.2°
Reaches altitude 10° 17:53:23 10° 220° (SW) 1,496 0.1 -8.5°
Maximum altitude 17:56:40 54° 142° (SE) 517 -3.4 -9.1°
Enters shadow 17:59:26 14° 66° (ENE) 1,293 -2.0 -9.6°
